CZ-6A DEB, 55896

Orbit data source: Space-Track

CZ-6A DEB, 55896 is space debris in SSO originally from a launch on Fri, 11 Nov 2022 UTC launched from the Taiyaun Space Center, China (TSC). Debris objects in space refer to the collection of defunct objects orbiting the Earth. Examples of debris include non-operational satellites, rocket bodies, and fragments generated from explosions, collisions, or faulty payload assembly.

Loading next visibility...
Identifier
55896, 2022-151AAU
Orbit
SSO
Country
Flag of CNCN / PRC
Related business
Manufacturer
SAST
Mission
Spacecraft
Bus & Motor
Unknown
Mass
Unknown
Launch date (UTC)
2022-11-11 (4 years ago)
Launch vehicle
Unknown
Launch site
Taiyaun Space Center, China (TSC)
Object type
Payload
Rocket body
Debris
Shape & HBR
Unknown shape, 0.1 m
Radar Cross Section
Medium (>0.1 m² and <1 m²)

Expand to show TLE details & history
Last TLE update: 2 days ago

TLE from 2 days ago
0 CZ-6A DEB
1 55896U 22151AAU 26170.98589862  .00002193  00000-0  95865-3 0  9996
2 55896  98.8036 184.7024 0033506 273.0861  86.6484 14.24558120180859
Epoch: 2026-06-19T23:39Z
TLE epoch observation values (Epoch: 2026-06-19T23:39:41.640Z)
Latitude
-0.00004°
Longitude
-78.42811°
Altitude
811.568 km
Speed
7.448 km/s
True Right ascension
12h 18m 48s
True Declination
0° 00' 00"
Sunlit
Object was in daylight at epoch
Visualization orbit readout
Latitude
Unknown
Longitude
Unknown
Altitude
Unknown
Speed
Unknown
Apparent Right ascension
Unknown
Apparent Declination
Unknown
Sunlit
N/A
Visualization observer readout
Local Sidereal Time
21:39:46
Azimuth
Unknown
Elevation
Unknown
Doppler factor
Unknown
Orbital elements
Apogee altitude
831.211 km
Perigee altitude
783.061 km
Semi-major axis
7,185.273 km
Eccentricity
0.00335
Inclination
98.8036°
RAAN
184.7024°
Arg. of periapsis
273.0861°
True anomaly
87.03178°
Mean anomaly
86.6484°
Eccentric anomaly
86.84008°
Mean motion
3.56351 °/min
Orbital period
101.02 mins
BSTAR
0.00095865
Loading maneuver chart data...
Computing Atmospheric mass density...
Loading historical data...
Loading historical data...
Loading historical data...
Loading historical data...
Loading historical data...
Loading historical data...
Loading historical data...

Documentation

Showing up to 5 results
|